Main page
METAR-TAF:

METAR-TAF

Airports :

Ardabil Airport

Ardabil, Iran

latitude: 38-19-35N, longitude: 048-25-28E, elevation: 1315 m

Current weather observation

The report was made 37 minutes ago, at 08:30 UTC
Wind 19 kt from the East/Northeast
Temperature 20°C
Humidity 60%
Pressure 1018 hPa
Visibility 10 km or more
Few clouds at a height of 2000 ft

METAR: OITL 150830Z 06019KT 9999 FEW020 20/12 Q1018

Time: 13:37 (09:07 UTC)


TAF: missing

Weather observations and forecasts of more than 4000 airports (METAR and TAF reports).

The available stations are represented by yellow and red dots on the map.

Hover mouse over dot to see the name of the station.

Then click to see weather observations and forecasts.

To change the map : click on the green buttons with a black cross to zoom in, on the green button with a dash to zoom out, or on the green arrows for adjacent maps.


METAR-TAF: